User: anonymous   Login
Location: Vancouver
(49.2500°N, 123.1330°W)
Time: 11:39:12
(UTC-07:00)
Language:

JAS-1B - Orbit

View from above orbital plane
View from above orbital plane
View from above satellite
View from above satellite

Ground track
Ground track

The orbit data is extracted from the following two-line orbital elements,

1 20480U 90013C   17289.93622556 -.00000055 +00000-0 -58966-4 0  9992
2 20480 099.0713 040.4126 0540888 115.3178 250.4951 12.83417336297294
Epoch (UTC): 16 October 2017 22:28:09
Eccentricity: 0.0540888
inclination: 99.0713°
perigee height: 911 km
apogee height: 1744 km
right ascension of ascending node: 40.4126°
argument of perigee: 115.3178°
revolutions per day: 12.83417336
mean anomaly at epoch: 250.4951°
orbit number at epoch: 29729

The dashed part of the orbit path shows where the satellite is in the earth's shadow,  

DLR